Location: Buch
(49.7331°N, 12.1098°E)
Time: 14:38:41
(UTC+00:00)

Cosmos 1733 Rocket - Pass Details

Date: 12 May 2021
Orbit: 603 x 628 km, 82.5° (Epoch: 17 June)

Event Time Altitude Azimuth Distance (km) Brightness Sun altitude
Rises 21:36:24 0° 350° (N) 2,874 8.0 -18.9°
Reaches altitude 10° 21:38:37 10° 352° (N) 1,963 6.8 -19.1°
Maximum altitude 21:42:59 82° 81° (E) 616 2.9 -19.3°
Enters shadow 21:44:08 48° 161° (SSE) 792 3.1 -19.4°
